This demonstration page uses our WeatherBlox Daily Observations layout. Learn more.

Left ArrowRight Arrow

38.80484, -77.04692

Hourly Observations for May 14, 2021

Temp ( °F °C ) Dew Point ( °F °C ) Humidity (%) Winds ( mph kmh ) Pressure ( in mb ) Visibility ( mi km ) Precip ( " mm )
12:52 am 00:52 Clear 55 12.8 38 3.3 53 53 WSW 3 6 30.24 1024 10 16 N/A
1:52 am 01:52 Mostly Clear 55 12.8 40 4.4 57 57 N N/A 30.24 1024 10 16 N/A
2:52 am 02:52 Mostly Clear 54 12.2 40 4.4 59 59 N N/A 30.24 1024 10 16 N/A
3:52 am 03:52 Mostly Cloudy 53 11.7 41 5 64 64 N N/A 30.24 1024 10 16 N/A
4:52 am 04:52 Mostly Cloudy 53 11.7 41 5 64 64 N N/A 30.24 1024 10 16 N/A
5:52 am 05:52 Mostly Cloudy 54 12.2 40 4.4 59 59 N 5 7 30.24 1024 10 16 N/A
6:52 am 06:52 Mostly Cloudy 55 12.8 42 5.6 62 62 N N/A 30.26 1025 10 16 N/A
7:52 am 07:52 Mostly Cloudy 57 13.9 41 5 55 55 N 6 9 30.27 1025 10 16 N/A
8:52 am 08:52 Partly Cloudy 59 15 39 3.9 48 48 NNW 7 11 30.28 1026 10 16 N/A
9:52 am 09:52 Mostly Sunny 63 17.2 42 5.6 47 47 ENE 5 7 30.28 1025 10 16 N/A
10:52 am 10:52 Mostly Sunny 69 20.6 38 3.3 32 32 N N/A 30.28 1025 10 16 N/A
11:52 am 11:52 Mostly Cloudy 71 21.7 35 1.7 27 27 N N/A 30.27 1025 10 16 N/A
12:52 pm 12:52 Mostly Cloudy 69 20.6 36 2.2 30 30 NW 8 13 30.26 1025 10 16 N/A
1:52 pm 13:52 Mostly Cloudy 71 21.7 33 0.6 25 25 NW 3 6 30.25 1024 10 16 N/A
2:52 pm 14:52 Mostly Cloudy 72 22.2 34 1.1 25 25 NNW 9 15 30.24 1024 10 16 N/A
3:52 pm 15:52 Mostly Cloudy 73 22.8 33 0.6 23 23 E 5 7 30.22 1024 10 16 N/A
4:52 pm 16:52 Mostly Cloudy 70 21.1 37 2.8 30 30 S 8 13 30.22 1023 10 16 N/A
5:52 pm 17:52 Mostly Cloudy 69 20.6 41 5 36 36 S 9 15 30.21 1023 10 16 N/A
6:52 pm 18:52 Partly Cloudy 69 20.6 41 5 36 36 S 9 15 30.20 1023 10 16 N/A
7:52 pm 19:52 Partly Cloudy 66 18.9 36 2.2 33 33 SSW 7 11 30.21 1023 10 16 N/A
8:52 pm 20:52 Partly Cloudy 64 17.8 38 3.3 38 38 SW 9 15 30.22 1023 10 16 N/A
9:52 pm 21:52 Clear 61 16.1 40 4.4 46 46 S 7 11 30.23 1024 10 16 N/A
10:52 pm 22:52 Mostly Cloudy 61 16.1 40 4.4 46 46 S 5 7 30.24 1024 10 16 N/A
11:52 pm 23:52 Mostly Cloudy 59 15 47 8.3 64 64 S 5 7 30.23 1024 10 16 N/A

Powered by AerisWeather